Regional Weather Roundup
Issued by NWS

Home | Current Version | Previous Version | Graphics & Text | Print | Product List | Glossary On
Versions: 1 2 3 4 5 6 7 8 9 10 11 12 13 14 15 16 17 18 19 20 21 22 23 24 25 26 27 28 29 30 31 32 33 34 35 36 37 38 39 40 41 42 43 44 45 46 47 48 49 50
000
ASUS45 KCYS 232210
RWRWY

WYOMING REGIONAL WEATHER ROUNDUP
NATIONAL WEATHER SERVICE CHEYENNE WY
400 PM MDT FRI JUN 23 2017

NOTE:  "FAIR" INDICATES FEW OR NO CLOUDS BELOW 12,000 FEET
WITH NO SIGNIFICANT WEATHER AND/OR OBSTRUCTIONS TO VISIBILITY.

WYZ001-232300-
YELLOWSTONE NATIONAL PARK

CITY           SKY/WX    TMP DP  RH WIND       PRES   REMARKS
LK YELLOWSTONE   N/A     60  32  34 VRB6      30.34S
W YELLOWSTONE  NOT AVBL

$$
WYZ002>013-054>058-071-098>099-232300-
NORTHERN WYOMING

CITY           SKY/WX    TMP DP  RH WIND       PRES   REMARKS
JACKSON        SUNNY     70  23  17 VRB5      30.25S
CODY           FAIR      66  29  24 N7        30.26F
GREYBULL       FAIR      73  25  16 N9        30.18F
WORLAND        FAIR      71  25  17 VRB3      30.20F
SHERIDAN       CLOUDY    67  35  30 N14       30.24S
BUFFALO        PTSUNNY   63  33  32 N21G26    30.27F
GILLETTE       PTSUNNY   66  30  26 NW13G30   30.22S
NEWCASTLE      FAIR      66  25  20 NW22G31   30.21S

$$
WYZ014>020-022>026-101>103-232300-
CENTRAL WYOMING

CITY           SKY/WX    TMP DP  RH WIND       PRES   REMARKS
BIG PINEY      FAIR      73  30  20 MISG      30.25F
PINEDALE       FAIR      68  32  26 W10G17    30.27F
DUBOIS         FAIR      64  30  27 SE12G21   30.26S
LANDER         FAIR      68  36  30 NE6       30.22F
RIVERTON       FAIR      66  30  26 MISG      30.23F
CASPER         FAIR      69  30  23 NE6       30.23S
DOUGLAS        FAIR      68  31  25 VRB5      30.24S

$$
WYZ021-027>030-104>119-232300-
SOUTHERN WYOMING

CITY           SKY/WX    TMP DP  RH WIND       PRES   REMARKS
EVANSTON       FAIR      75  33  21 W15G21    30.28F
KEMMERER         N/A     72  21  15 W17G26    30.28F
FORT BRIDGER   FAIR      78  29  16 NW16G29   30.29F
ROCK SPRINGS   FAIR      75  24  15 W10G20    30.24S
DIXON          FAIR      78  24  14 W14G22    30.24F
RAWLINS        FAIR      73  25  16 W13G18    30.24F
SARATOGA       FAIR      72  28  20 NW13G22   30.25F
LARAMIE          N/A     70  30  22 N14G24    30.25F
CHEYENNE       PTSUNNY   61  41  47 SE12      30.26S
TORRINGTON     PTSUNNY   73  30  20 NW17      30.18S
PINE BLUFFS    FAIR      64  37  36 NE5       30.24F

$$



USA.gov is the U.S. government's official web portal to all federal, state and local government web resources and services.